FW7308 Weather Reports


time (UTC)temp
F
wind
direction
speed
knots
gust
knots
rain 1hr
in
rain 24hr
in
rain mn
in
humidity
%
barometer
mb
20260506071144 0 0.0 0.0 0.00 0.00 0.00 1010.7
20260506070745 0 0.0 0.0 0.00 0.00 0.00 1010.5
20260506070146 0 0.0 0.0 0.00 0.00 0.00 1010.5
20260506062240 0 0.0 0.0 0.00 0.00 0.00 1010.5
20260506061642 0 0.0 0.0 0.00 0.00 0.00 1010.5
20260506061140 0 0.0 0.0 0.00 0.00 0.00 1010.5
20260506060740 0 0.0 0.0 0.00 0.00 0.00 1010.5
20260506060142 0 0.0 0.0 0.00 0.00 0.00 1010.5
20260506051136 0 0.0 0.0 0.00 0.00 0.00 1010.9
20260506050636 0 0.0 0.0 0.00 0.00 0.00 1010.9
20260506050136 60 337 0.9 1.7 0.00 0.00 0.00 82 1010.7
20260506045136 60 70 2.6 4.3 0.00 0.00 0.00 81 1010.5
20260506043133 61 80 3.5 5.2 0.00 0.00 0.00 80 1010.9
20260506042631 61 203 4.3 5.2 0.00 0.00 0.00 81 1010.9
20260506042132 61 351 2.6 2.6 0.00 0.00 0.00 81 1010.5
20260506041132 61 212 2.6 6.1 0.00 0.00 0.00 81 1010.7
20260506040632 61 66 3.5 5.2 0.00 0.00 0.00 82 1010.7
20260506040131 61 1 1.7 1.7 0.00 0.00 0.00 83 1010.5
20260506035630 62 155 2.6 5.2 0.00 0.00 0.01 83 1010.5
20260506035131 62 14 1.7 2.6 0.00 0.00 0.01 83 1010.5
20260506034630 62 354 0.9 0.9 0.00 0.00 0.01 82 1010.5
20260506034131 62 2 0.9 1.7 0.00 0.00 0.01 83 1010.1
20260506033629 62 345 0.9 0.9 0.00 0.00 0.01 82 1010.5
20260506033128 62 49 2.6 4.3 0.00 0.00 0.01 82 1010.5
20260506032629 62 49 2.6 4.3 0.00 0.00 0.01 82 1010.5
20260506032129 62 239 2.6 4.3 0.00 0.00 0.01 82 1010.5
20260506031628 62 239 2.6 4.3 0.00 0.00 0.01 82 1010.7
20260506031127 0 0.0 0.0 0.00 0.00 0.01 1010.9
20260506030627 0 0.0 0.0 0.00 0.00 0.01 1010.9
20260506030125 0 0.0 0.0 0.00 0.00 0.01 1010.9
20260506025126 0 0.0 0.0 0.00 0.00 0.01 1010.9
20260506024124 0 0.0 0.0 0.00 0.00 0.01 1010.5
20260506023625 0 0.0 0.0 0.00 0.00 0.01 1010.5
20260506023126 0 0.0 0.0 0.00 0.00 0.01 1010.5
20260506022124 0 0.0 0.0 0.00 0.00 0.01 1010.5
20260506021627 0 0.0 0.0 0.00 0.00 0.01 1010.5
20260506021124 0 0.0 0.0 0.00 0.00 0.01 1010.5
20260506020622 0 0.0 0.0 0.00 0.00 0.01 1010.7
20260506020123 0 0.0 0.0 0.00 0.00 0.01
20260506015622 0 0.0 0.0 0.00 0.00 0.01 1010.9
20260506015124 0 0.0 0.0 0.00 0.00 0.01 1010.7
20260506014622 0 0.0 0.0 0.00 0.00 0.01 1010.5
20260506014121 0 0.0 0.0 0.00 0.00 0.01 1010.5
20260506013121 0 0.0 0.0 0.00 0.00 0.01 1010.1
20260506012622 0 0.0 0.0 0.00 0.00 0.01 1010.1
20260506012121 60 340 1.7 1.7 0.00 0.00 0.01 92 1010.3
20260506011621 60 340 1.7 1.7 0.00 0.00 0.01 92 1010.3
20260506010619 60 345 0.9 0.9 0.00 0.00 0.01 95 1010.1
20260506010126 60 0.0 0.0 0.00 0.00 0.01 94 1010.1
20260506005617 60 336 0.9 1.7 0.00 0.00 0.01 93 1009.8
20260506005118 61 7 1.7 1.7 0.00 0.00 0.01 89 1009.8
20260506004618 62 316 0.9 1.7 0.00 0.00 0.01 86 1010.0
20260506004118 64 343 0.0 0.9 0.00 0.00 0.00 80 1010.1
20260506003616 0 0.0 0.0 0.00 0.00 0.00 1009.8
20260506003117 0 0.0 0.0 0.00 0.00 0.00 1010.0
20260506002748 0 0.0 0.0 0.00 0.00 0.00 1010.1
20260506002147 0 0.0 0.0 0.00 0.00 0.00 1010.1
20260506001645 63 0.0 0.0 0.00 0.00 0.00 81 1010.1
20260506001149 64 323 0.0 0.9 0.00 0.00 0.00 80 1009.8
20260506000645 65 0.0 0.0 0.00 0.00 0.00 74 1009.8
20260506000144 65 0.0 0.0 0.00 0.00 0.00 74 1009.8
20260505235809 65 343 0.0 0.9 0.00 0.00 0.00 73 1009.8
20260505231135 65 4 8.7 13.9 0.00 0.00 0.00 75 1009.1
20260505230133 64 339 2.6 2.6 0.00 0.00 0.00 78 1008.7
20260505225633 64 306 1.7 4.3 0.00 0.00 0.00 81 1008.7
20260505225135 64 307 2.6 5.2 0.00 0.00 0.00 81 1008.9
20260505224632 64 326 1.7 2.6 0.00 0.00 0.00 80 1008.7
20260505224232 64 335 4.3 7.0 0.00 0.00 0.00 81 1008.7
20260505223631 65 340 1.7 1.7 0.00 0.00 0.00 81 1008.7
20260505223232 66 320 2.6 4.3 0.00 0.00 0.00 74 1008.4
20260505222631 69 317 8.7 14.8 0.00 0.00 0.00 66 1008.4
20260505222131 69 313 2.6 4.3 0.00 0.00 0.00 63 1008.0
20260505221130 70 335 1.7 2.6 0.00 0.00 0.00 60 1007.5
20260505220630 71 325 0.9 1.7 0.00 0.00 0.00 57 1007.3
20260505220129 73 358 2.6 2.6 0.00 0.00 0.00 54 1007.3
20260505215127 77 318 1.7 2.6 0.00 0.00 0.00 41 1007.2
20260505214629 76 343 1.7 2.6 0.00 0.00 0.00 41 1007.0
20260505214128 76 352 0.9 1.7 0.00 0.00 0.00 41 1007.0
20260505213628 76 319 1.7 4.3 0.00 0.00 0.00 43 1006.8
20260505213126 76 341 0.9 1.7 0.00 0.00 0.00 42 1007.0
20260505212628 77 353 7.0 11.3 0.00 0.00 0.00 42 1007.3
20260505212130 77 322 1.7 4.3 0.00 0.00 0.00 42 1007.0
20260505211627 77 2 1.7 4.3 0.00 0.00 0.00 41 1007.0
20260505211125 77 339 4.3 7.8 0.00 0.00 0.00 40 1007.0
20260505210624 78 228 7.0 9.6 0.00 0.00 0.00 40 1007.0
20260505210125 79 323 2.6 5.2 0.00 0.00 0.00 40 1006.6
20260505205624 79 241 4.3 5.2 0.00 0.00 0.00 40 1006.3
20260505205124 78 44 6.1 9.6 0.00 0.00 0.00 40 1006.3
20260505204623 79 76 3.5 6.1 0.00 0.00 0.00 40 1006.3
20260505204124 79 336 5.2 9.6 0.00 0.00 0.00 40 1006.3
20260505203623 78 320 2.6 4.3 0.00 0.00 0.00 41 1006.1
20260505203122 78 322 3.5 5.2 0.00 0.00 0.00 40 1006.1
20260505202622 78 143 8.7 13.0 0.00 0.00 0.00 40 1006.3
20260505202123 78 258 4.3 6.1 0.00 0.00 0.00 40 1006.3
20260505201622 79 171 12.2 20.9 0.00 0.00 0.00 40 1006.3
20260505201121 79 320 1.7 4.3 0.00 0.00 0.00 40 1005.9
20260505200722 79 301 3.5 6.1 0.00 0.00 0.00 39 1006.3
20260505200123 78 318 2.6 6.1 0.00 0.00 0.00 39 1006.6
20260505195621 79 111 7.0 8.7 0.00 0.00 0.00 39 1006.6
20260505195120 79 323 0.9 1.7 0.00 0.00 0.00 40 1006.6
20260505194619 78 7 5.2 9.6 0.00 0.00 0.00 39 1006.8
20260505194120 77 350 0.9 1.7 0.00 0.00 0.00 39 1006.8
20260505193619 78 277 4.3 14.8 0.00 0.00 0.00 39 1006.6
20260505192618 78 144 4.3 8.7 0.00 0.00 0.00 39 1006.8
20260505192120 79 170 4.3 7.8 0.00 0.00 0.00 37 1007.0
20260505191122 79 312 5.2 8.7 0.00 0.00 0.00 37 1007.0
20260505190117 79 328 7.0 14.8 0.00 0.00 0.00 38 1006.6
20260505185618 80 177 8.7 13.9 0.00 0.00 0.00 37 1006.8
20260505185116 80 179 5.2 9.6 0.00 0.00 0.00 38 1007.0
20260505184647 80 329 1.7 4.3 0.00 0.00 0.00 37 1007.3
20260505184146 80 29 6.1 9.6 0.00 0.00 0.00 38 1007.2
20260505183646 79 321 3.5 7.0 0.00 0.00 0.00 37 1007.0
20260505183144 80 167 5.2 7.8 0.00 0.00 0.00 37 1007.3
20260505182643 81 272 6.1 11.3 0.00 0.00 0.00 36 1007.3
20260505182245 80 161 5.2 9.6 0.00 0.00 0.00 41 1007.2
20260505181644 80 290 9.6 17.4 0.00 0.00 0.00 38 1007.0
20260505181144 80 9 3.5 6.1 0.00 0.00 0.00 37 1007.3
20260505180644 79 300 6.1 11.3 0.00 0.00 0.00 38 1007.7
20260505175643 77 139 5.2 7.8 0.00 0.00 0.00 46 1007.7
20260505175142 78 216 6.1 8.7 0.00 0.00 0.00 43 1007.7
20260505174641 78 159 5.2 8.7 0.00 0.00 0.00 39 1007.7
20260505174142 78 287 4.3 7.8 0.00 0.00 0.00 37 1007.7
20260505173641 79 277 4.3 7.0 0.00 0.00 0.00 38 1008.2
20260505173141 79 20 7.8 17.4 0.00 0.00 0.00 37 1008.0
20260505172640 79 351 7.8 9.6 0.00 0.00 0.00 38 1008.0
20260505172139 79 162 8.7 11.3 0.00 0.00 0.00 39 1008.0
20260505171640 79 282 6.1 13.9 0.00 0.00 0.00 40 1008.0
20260505171139 78 352 7.0 13.0 0.00 0.00 0.00 38 1008.0
20260505160636 75 313 2.6 4.3 0.00 0.00 0.00 50 1009.1
20260505160134 74 147 9.6 12.2 0.00 0.00 0.00 51 1008.7
20260505153132 72 161 4.3 7.0 0.00 0.00 0.00 56 1009.8
20260505152632 72 187 7.0 8.7 0.00 0.00 0.00 55 1009.8
20260505152133 70 165 7.8 12.2 0.00 0.00 0.00 58 1009.8
20260505151632 70 146 8.7 11.3 0.00 0.00 0.00 58 1009.8
20260505151131 69 160 7.8 7.8 0.00 0.00 0.00 59 1010.1
20260505150630 69 227 6.1 7.8 0.00 0.00 0.00 58 1009.8
20260505150129 68 125 4.3 7.0 0.00 0.00 0.00 60 1010.1
20260505140627 63 120 5.2 6.1 0.00 0.00 0.00 68 1010.3
20260505130122 58 146 6.1 8.7 0.00 0.00 0.00 76 1010.1
20260505124621 56 163 7.8 9.6 0.00 0.00 0.00 79 1010.3
20260505124120 55 170 4.3 6.1 0.00 0.00 0.00 80 1010.1
20260505123720 55 173 5.2 7.0 0.00 0.00 0.00 81 1010.1
20260505123121 54 123 7.0 12.2 0.00 0.00 0.00 81 1010.1
20260505122119 53 146 7.8 11.3 0.00 0.00 0.00 84 1010.1
20260505121622 52 142 7.0 9.6 0.00 0.00 0.00 86 1010.1
20260505121120 51 192 2.6 2.6 0.00 0.00 0.00 87 1010.1
20260505120619 51 206 4.3 6.1 0.00 0.00 0.00 87 1010.1
20260505120118 52 213 4.3 6.1 0.00 0.00 0.00 86 1010.3
20260505115619 52 161 6.1 7.8 0.00 0.00 0.00 85 1010.1
20260505115118 52 57 2.6 2.6 0.00 0.00 0.00 84 1010.1
20260505114617 53 143 3.5 6.1 0.00 0.00 0.00 83 1010.5
20260505113619 53 276 1.7 1.7 0.00 0.00 0.00 83 1010.5
20260505112616 53 141 7.0 8.7 0.00 0.00 0.00 84 1010.7
20260505112145 52 121 3.5 5.2 0.00 0.00 0.00 85 1010.5
20260505111646 51 90 4.3 8.7 0.00 0.00 0.00 86 1010.1
20260505110645 51 156 4.3 5.2 0.00 0.00 0.00 86 1010.1
20260505110144 50 186 4.3 6.1 0.00 0.00 0.00 87 1010.1
20260505102141 48 107 3.5 5.2 0.00 0.00 0.00 91 1009.8
20260505101642 48 173 4.3 6.1 0.00 0.00 0.00 90 1009.8
20260505101142 48 59 2.6 4.3 0.00 0.00 0.00 90 1009.4
20260505100641 48 9 2.6 2.6 0.00 0.00 0.00 90 1009.6
20260505100140 48 38 2.6 2.6 0.00 0.00 0.00 90 1009.8
20260505095641 48 19 1.7 2.6 0.00 0.00 0.00 90 1009.8
20260505095140 48 126 2.6 5.2 0.00 0.00 0.00 90 1009.8
20260505094639 48 86 2.6 4.3 0.00 0.00 0.00 90 1009.8
20260505094139 48 21 1.7 2.6 0.00 0.00 0.00 89 1009.8
20260505093640 49 59 2.6 2.6 0.00 0.00 0.00 88 1009.8
20260505093139 49 259 4.3 6.1 0.00 0.00 0.00 87 1009.6
20260505092640 49 319 1.7 1.7 0.00 0.00 0.00 87 1009.4
20260505092140 49 267 4.3 5.2 0.00 0.00 0.00 87 1009.8
20260505091639 49 18 1.7 1.7 0.00 0.00 0.00 87 1009.8
20260505091138 49 332 1.7 1.7 0.00 0.00 0.00 87 1009.8
20260505090638 49 141 4.3 5.2 0.00 0.00 0.00 86 1009.8
20260505090136 50 253 2.6 7.0 0.00 0.00 0.00 86 1010.0
20260505085639 50 342 1.7 4.3 0.00 0.00 0.00 85 1009.8
20260505085136 50 224 4.3 7.0 0.00 0.00 0.00 85 1009.8
20260505084636 50 317 0.9 1.7 0.00 0.00 0.00 85 1010.0
20260505084136 50 21 1.7 1.7 0.00 0.00 0.00 85 1010.1
20260505083135 50 356 0.9 1.7 0.00 0.00 0.00 85 1010.1
20260505082734 50 8 1.7 1.7 0.00 0.00 0.00 85 1010.1
20260505082134 50 360 0.9 1.7 0.00 0.00 0.00 85 1010.1
20260505081635 50 275 1.7 2.6 0.00 0.00 0.00 85 1010.1
20260505080635 50 323 2.6 4.3 0.00 0.00 0.00 85 1009.8
20260505080133 50 37 2.6 2.6 0.00 0.00 0.00 84 1009.8
20260505075634 50 203 2.6 2.6 0.00 0.00 0.00 84 1010.0
20260505075134 50 3 2.6 2.6 0.00 0.00 0.00 84 1010.1
20260505074734 50 88 2.6 4.3 0.00 0.00 0.00 83 1010.1
20260505074137 50 205 3.5 7.0 0.00 0.00 0.00 83 1010.1
20260505073632 50 334 0.9 1.7 0.00 0.00 0.00 83 1010.1
20260505073131 50 0 0.9 1.7 0.00 0.00 0.00 82 1010.1
20260505072630 50 358 0.9 1.7 0.00 0.00 0.00 82 1010.1
20260505072130 50 350 2.6 2.6 0.00 0.00 0.00 82 1010.1
20260505071629 50 183 2.6 4.3 0.00 0.00 0.00 82 1010.1